Weather in Tyumencevo

Russia / Altai Krai     53°19′03″N   81°30′01″E
temp.,
°C
wind,
m/s
gust,
m/s
humid.,
%
clouds,
%
prec.,
mm/h
press.,
hPa
HPBL,
m
7 may, fri
fri701:00+20w51444100 0.0 1003284
04:00+16nw51161100 0.0 1005358
07:00+15wnw5963100 0.0 1008375
10:00+15nw5757100 0.0 1011597
13:00+18nw7833100 0.0 10131590
16:00+18nw783080 0.0 10141903
19:00+18wnw5832100 0.0 10162036
22:00+13nnw3847100 0.0 1019206
8 may, sat
sat801:00+10nw35483 0.0 102087
04:00+8nw34545 0.0 102159
07:00+8nnw23570 0.0 102255
10:00+14wnw22360 0.0 1022608
13:00+18w34290 0.0 10211413
16:00+20wnw45290 0.0 10191824
19:00+20wnw45310 0.0 10191918
22:00+15wsw22430 0.0 101917
9 may, sun
sun901:00+13w22480 0.0 101916
04:00+12w22532 0.0 101814
07:00+12w225595 0.0 101813
10:00+17nnw33405 0.0 1018502
13:00+21n34385 0.0 10171771
16:00+21nne543472 0.0 10162217
19:00+19ne6538100 0.0 10161314
22:00+13ene7124397 0.0 1017428
10 may, mon
mon1001:00+11ene7134646 0.0 1017470
04:00+9ene7145286 0.0 1016510
07:00+7ene7145536 0.0 1016590
10:00+10ene81141100 0.0 1015791
13:00+14ene7930100 0.0 10131365
16:00+15ene6831100 0.0 10121801
19:00+15ne6937100 0.0 10111737
22:00+11nne494739 0.0 1012171
11 may, tue
tue1101:00+10nne6135547 0.0 1012394
04:00+8nne6126448 0.0 1012351
07:00+7nne5107284 0.0 1013380
10:00+11nne6753100 0.0 1014744
13:00+14nne5639100 0.0 10131641
16:00+16n5633100 0.0 10132270
19:00+16n6839100 0.0 10131443
22:00+13n51142100 0.0 1014450